Hourly Data Report for October 11, 2014

All times are specified in Local Standard Time (LST). Add 1 hour to adjust for Daylight Saving Time where and when it is observed.

SAINT JOHN A
NEW BRUNSWICK

45°18'58.000" N
65°53'24.000" W
108.80 m
8104901
71609
YSJ

Download Data

Hourly Data (October 2014)
Hourly Data Report for October 11, 2014
Temp Definition
°C
Dew Point Temp Definition
°C
Rel Hum Definition
%
Wind Dir Definition
10's deg

Wind Spd Definition
km/h
Visibility Definition
km
Stn Press Definition
kPa
Hmdx Definition


Wind Chill Definition


Weather Definition


TIME
00:00 Legend Double Dagger 7.9 3.0 71 27 11 24.1 100.49     LegendNANA
01:00 Legend Double Dagger 4.1 2.3 88   0 48.3 100.53     LegendNANA
02:00 Legend Double Dagger 3.0 2.0 93 28 3 24.1 100.55     Mainly Clear
03:00 Legend Double Dagger 2.0 1.0 93 36 1 24.1 100.55     LegendNANA
04:00 Legend Double Dagger 1.6 1.5 99 0 1 24.1 100.58     LegendNANA
05:00 Legend Double Dagger 1.4 1.0 97 19 4 24.1 100.64     Mainly Clear
06:00 Legend Double Dagger -0.3 -0.6 98 1 3 24.1 100.65   -1 LegendNANA
07:00 Legend Double Dagger 0.4 0.1 98 36 1 24.1 100.71     LegendNANA
08:00 Legend Double Dagger 3.4 2.7 95 36 2 24.1 100.77     Mostly Cloudy
09:00 Legend Double Dagger 7.7 4.3 79 36 2 24.1 100.74     LegendNANA
10:00 Legend Double Dagger 9.4 4.4 71 36 2 24.1 100.75     LegendNANA
11:00 Legend Double Dagger 9.6 4.0 68 22 5 24.1 100.71     Cloudy
12:00 Legend Double Dagger 10.0 4.2 67 21 5 24.1 100.71     LegendNANA
13:00 Legend Double Dagger 9.9 3.4 64 19 9 24.1 100.61     LegendNANA
14:00 Legend Double Dagger 9.6 4.6 71 18 9 24.1 100.58     Cloudy
15:00 Legend Double Dagger 9.2 5.2 76 22 5 24.1 100.56     LegendNANA
16:00 Legend Double Dagger 8.8 6.3 84 17 8 24.1 100.49     Rain Showers
17:00 Legend Double Dagger 8.6 6.9 89 18 7 24.1 100.47     Mostly Cloudy
18:00 Legend Double Dagger 8.1 6.6 90 22 4 24.1 100.44     LegendNANA
19:00 Legend Double Dagger 5.7 4.7 93 25 3 24.1 100.47     LegendNANA
20:00 Legend Double Dagger 4.2 3.8 97 36 2 24.1 100.46     Cloudy
21:00 Legend Double Dagger 4.6 4.2 97   0 24.1 100.45     LegendNANA
22:00 Legend Double Dagger 2.2 2.2 100 7 5 24.1 100.42     LegendNANA
23:00 Legend Double Dagger 2.9 2.9 100 36 2 24.1 100.44     Mainly Clear

Notes on Data Quality.

Legend

  • E = Estimated
  • M = Missing
  • NA = Not Available
  • ‡ = Partner data that is not subject to review by the National Climate Archives
Date modified: